Location: Cutler
(25.6150°N, 80.3110°W)
Time: 05:38:16
(UTC-05:00)

Vanguard 1 - Pass Details

Date: 25 January 2018
Orbit: 650 x 3833 km, 34.2° (Epoch: 21 February)

Event Time Altitude Azimuth Distance (km) Brightness Sun altitude
Rises 06:21:33 0° 285° (WNW) 5,843 - -10.7°
Reaches altitude 10° 06:25:11 10° 278° (W) 5,217 - -9.9°
Exits shadow 06:25:17 10° 278° (W) 5,203 13.1 -9.8°
Maximum altitude 06:40:06 39° 216° (SW) 4,418 13.2 -6.6°
Drops below altitude 10° 07:00:32 10° 156° (SSE) 6,923 15.1 -2.3°
Sets 07:06:34 0° 149° (SSE) 7,854 15.6 -1.0°
